STARLINK-32591, 61718

Orbit data source: Space-Track

STARLINK-32591, 61718 is a payload satellite owned by SpaceX/Seattle (US) in LEO that was launched on Wed, 30 Oct 2024 UTC via an FALCON 9 launch vehicle from the Air Force Eastern Test Range (AFETR). Payloads include a variety of satellites, spacecraft, and rockets equipped with specific instruments for various scientific and technological missions. These include communications satellites like Starlink; space stations such as the ISS; scientific satellites like the Hubble; Earth observation satellites from companies like Planet Labs, Umbra, and HawkEye 360; GPS; miniature CubeSats for education and research; and military/defense satellites.

Loading next visibility...
STARLINK-32591 details
Identifier
61718, 2024-196M
Orbit
LEO
Last TLE update4 days ago
Origin
Flag of USSpaceX/Seattle (US)
ManufacturerSpaceX/Seattle
MissionOperational spacecraft
Bus & MotorSTARLINK V2M, Unknown motor
Mass730 kg wet, ~700 kg dry
Launch date (UTC)
2024-10-30 (2 months ago)
Launch vehicle
FALCON 9
Launch site
Air Force Eastern Test Range (AFETR)
Object type
Payload
Rocket body
Debris
Shape & HBRUnknown
Radar Cross SectionLarge (>1 m²)

Expand to show TLE details & history

TLE from 4 days ago
0 STARLINK-32591
1 61718U 24196M   24357.41449437  .00111603  00000-0  12506-2 0  9990
2 61718  53.1599 354.8210 0006658  76.8146 283.3611 15.61841937  9454
Epoch: 2024-12-22T09:56Z
Definitive object data (Epoch: 2024-12-22T09:56:52.313Z)
Latitude-0.00003°
Longitude114.15137°
Altitude382.211 km
Speed7.682 km/s
True Right ascension23h 39m 17s
True Declination0° 00' 00"
Sunlit
Object was in daylight at TLE epoch
Visualization TLE readout
Latitude-52.8926°
Longitude-5.4182°
Altitude402.474 km
Speed7.666 km/s
Apparent Right ascension18h 58m 55s
Apparent Declination-55° 43' 39"
Sunlit
Object is in daylight
Visualization observer readout
Local Sidereal Time09:36:55
Azimuth134.743° SE
Elevation-59.715°
Doppler factor1
Orbital elements
Apogee altitude387.098 km
Perigee altitude378.095 km
Semi-major axis6,760.733 km
Eccentricity0.0006658
Inclination53.1599°
RAAN354.821°
Arg. of periapsis76.8146°
True anomaly283.28686°
Mean anomaly283.3611°
Eccentric anomaly283.32398°
Mean motion3.90438 °/min
BSTAR0.0012506
Orbital period92.2 mins
Loading maneuver chart data...
Loading historical data...
Loading historical data...
Loading historical data...
Loading historical data...
Loading historical data...
Loading historical data...
Loading historical data...

STARLINK-32591 Visibility forecast

Observer location: undefined°, undefined

Span
Click to sort rows by Start time (UTC) header in descending order
Start Az.
Max El. time (UTC)
Max El. Az.
Max El.
End time (UTC)
End Az.
5 mins2024-12-27 00:38:45.907Z196.22° SSW2024-12-27 00:41:45.907Z116.774° SE26.218°2024-12-27 00:43:45.907Z72.326° E
4 mins2024-12-27 08:41:45.907Z276.719° WNW2024-12-27 08:43:45.907Z211.32° SW25.682°2024-12-27 08:45:45.907Z166.833° S
|